Simultaneous Nadir Overpasses (SNOs) Predictions

Prediction of SNOs between NOAA-19 and NPP Satellite Orbit:

Table of predicted SNOs for the next 14.0 days since TLE Epoch: 3/14/2013
Index Date (NOAA-19) Time (NOAA-19) Lat,Lon (NOAA-19) SZA (NOAA-19 ) Date (NPP) Time (NPP) Lat,Lon (NPP) SZA (NPP ) Distance(km) Time Diff (sec)
1 03/19/2013 04:21:34 -80.87,-116.85 94.96 03/19/2013 04:22:31 -80.87,-116.91 94.98 1.22 57
2 03/19/2013 05:12:31 80.85, 50.73 84.98 03/19/2013 05:13:15 80.85, 50.74 84.96 0.29 44
3 03/19/2013 06:03:38 -80.86,-142.11 95.03 03/19/2013 06:04:00 -80.85,-141.94 95.07 3.05 22
4 03/19/2013 06:54:33 80.81, 26.18 84.81 03/19/2013 06:54:43 80.82, 26.06 84.82 2.08 10
5 03/19/2013 07:45:40 -80.82,-166.66 95.20 03/19/2013 07:45:28 -80.81,-166.62 95.20 0.78 12
6 03/19/2013 08:36:37 80.80, 0.91 84.74 03/19/2013 08:36:12 80.80, 1.03 84.73 2.16 25
7 03/19/2013 09:27:41 -80.76, 169.13 95.43 03/19/2013 09:26:55 -80.76, 169.05 95.40 1.51 46




NCC Satellite Simultaneous Nadir Overpasses (SNOs) Prediction Service
